Regional Weather Roundup
Issued by NWS

Home | Current Version | Previous Version | Text Only | Print | Product List | Glossary On
Versions: 1 2 3 4 5 6 7 8 9 10 11 12 13 14 15 16 17 18 19 20 21 22 23 24 25 26 27 28 29 30 31 32 33 34 35 36 37 38 39 40 41 42 43 44 45 46 47 48 49 50
000
ASUS43 KFSD 290810
RWRSD

WEATHER ROUNDUP FOR SOUTH DAKOTA
NATIONAL WEATHER SERVICE SIOUX FALLS SD
200 AM CST SAT NOV 29 2014

NOTE: "FAIR" INDICATES FEW OR NO CLOUDS BELOW 12,000 FEET WITH NO
SIGNIFICANT WEATHER AND/OR OBSTRUCTIONS TO VISIBILITY.


SDZ001>005-009-010-012>017-290900-
NORTHWEST AND NORTH CENTRAL SOUTH DAKOTA

CITY           SKY/WX    TMP DP  RH WIND       PRES   REMARKS
BUFFALO          N/A     42  25  50 W10       29.31F
FAITH            N/A     41  26  55 SW14      29.39F
MOBRIDGE       PTCLDY    27  23  85 SE8       29.36F WCI  19
$$

SDZ012>016-024>037-041>051-057-063-072>074-290900-
SOUTHWEST AND SOUTH CENTRAL SOUTH DAKOTA

CITY           SKY/WX    TMP DP  RH WIND       PRES   REMARKS
RAPID CTY ARPT CLEAR     57  16  20 W20G31    29.45F
PIERRE         CLEAR     28  24  85 CALM      29.41F
CUSTER         CLEAR     44  16  32 W14       29.56F
ELLSWORTH AFB  CLEAR     56  18  22 W15       29.43F
PHILIP         CLEAR     43  25  49 W9        29.43F
PINE RIDGE     CLEAR     53  19  26 SW16      29.53F
SPEARFISH      FAIR      54  16  22 SW16G25   29.45F
WINNER         FAIR      50  23  34 SW12      29.45F
$$

SDZ004>011-016>023-039-040-290900-
NORTHEAST SOUTH DAKOTA

CITY           SKY/WX    TMP DP  RH WIND       PRES   REMARKS
ABERDEEN       MOCLDY    24  20  84 S6        29.44F WCI  17
WATERTOWN      CLEAR     23  20  88 S8        29.45F WCI  14
SISSETON         N/A     19  19 100 S10       29.49F WCI   7
$$

SDZ017-020-022-023-036>040-048>070-290900-
SOUTHEAST SOUTH DAKOTA

CITY           SKY/WX    TMP DP  RH WIND       PRES   REMARKS
SIOUX FALLS    PTCLDY    20  18  92 E7        29.49F WCI  11
HURON          CLEAR     25  23  92 S8        29.44F WCI  16
CHAMBERLAIN    PTCLDY    24  22  91 CALM      29.44F
MITCHELL       CLEAR     25  23  92 SE5       29.47F FOG     WCI  19
YANKTON        CLEAR     27  25  93 SE3       29.50F
$$

ABBREVIATIONS USED IN REMARKS
   TC - TEMPERATURE IN CELSIUS
  WCI - WIND CHILL INDEX
   HX - HEAT INDEX
  VSB - VISIBILITY



USA.gov is the U.S. government's official web portal to all federal, state and local government web resources and services.